Вернуться в каталог

STARLINK-31032

АктивенСвязьVLEO
NORAD 58535·PAYLOAD·🇺🇸 United States

Запущен Dec 8, 2023 с Vandenberg Space Force Base

Loading…

Ближайшие Пролёты (ближайшие 24 часа)

TLE

СвежийSource: CelesTrak SupGP

Эпоха: Sep 14, 2026, 22:10 UTC

1 58535C 23192E   26257.92409722  .00044739  00000+0  13221-2 0  2574
2 58535  53.1571 259.4391 0001195  88.0003 107.3934 15.34361461    10

Отслеживайте STARLINK-31032 в реальном времени с AllMySat

Download on the App Store